Time,TemperatureF,DewpointF,PressureIn,WindDirection,WindDirectionDegrees,WindSpeedMPH,WindSpeedGustMPH,Humidity,HourlyPrecipIn,Conditions,Clouds,dailyrainin,SoftwareType,DateUTC
2014-01-30 00:12:00,9.9,1.2,30.02,WNW,292,1.1,-999.0,67,-99.99,,,0.00,Acu-Link.com,2014-01-30 05:12:00,
2014-01-30 00:27:00,9.1,0.7,30.03,NNW,337,0.0,-999.0,68,-99.99,,,0.00,Acu-Link.com,2014-01-30 05:27:00,
2014-01-30 00:42:00,8.6,0.9,30.02,West,270,0.0,-999.0,70,-99.99,,,0.00,Acu-Link.com,2014-01-30 05:42:00,
2014-01-30 00:57:00,8.6,0.9,30.02,SW,225,0.0,-999.0,70,-99.99,,,0.00,Acu-Link.com,2014-01-30 05:57:00,
2014-01-30 01:12:00,8.2,0.5,30.04,WSW,247,0.0,-999.0,70,-99.99,,,0.00,Acu-Link.com,2014-01-30 06:12:00,
2014-01-30 01:28:00,7.7,0.3,30.03,NW,315,0.0,-999.0,71,-99.99,,,0.00,Acu-Link.com,2014-01-30 06:28:00,
2014-01-30 01:43:00,7.2,0.1,30.05,NW,315,0.0,-999.0,72,-99.99,,,0.00,Acu-Link.com,2014-01-30 06:43:00,
2014-01-30 01:58:00,6.8,0.3,30.04,NW,315,0.0,-999.0,74,-99.99,,,0.00,Acu-Link.com,2014-01-30 06:58:00,
2014-01-30 02:13:00,6.3,0.1,30.04,NW,315,0.0,-999.0,75,-99.99,,,0.00,Acu-Link.com,2014-01-30 07:13:00,
2014-01-30 02:28:00,5.7,-0.5,30.05,North,0,0.0,-999.0,75,-99.99,,,0.00,Acu-Link.com,2014-01-30 07:28:00,
2014-01-30 02:44:00,5.4,-0.5,30.04,WNW,292,0.0,-999.0,76,-99.99,,,0.00,Acu-Link.com,2014-01-30 07:44:00,
2014-01-30 02:59:00,5.2,-0.7,30.04,NW,315,0.0,-999.0,76,-99.99,,,0.00,Acu-Link.com,2014-01-30 07:59:00,
2014-01-30 03:14:00,5.2,-0.4,30.05,NW,315,0.0,-999.0,77,-99.99,,,0.00,Acu-Link.com,2014-01-30 08:14:00,
2014-01-30 03:29:00,5.0,-0.6,30.03,East,90,0.0,-999.0,77,-99.99,,,0.00,Acu-Link.com,2014-01-30 08:29:00,
2014-01-30 03:45:00,4.6,-1.3,30.04,NW,315,0.0,-999.0,76,-99.99,,,0.00,Acu-Link.com,2014-01-30 08:45:00,
2014-01-30 04:00:00,4.6,-1.0,30.02,SSW,202,0.0,-999.0,77,-99.99,,,0.00,Acu-Link.com,2014-01-30 09:00:00,
2014-01-30 04:15:00,4.3,-1.6,30.04,NE,45,0.0,-999.0,76,-99.99,,,0.00,Acu-Link.com,2014-01-30 09:15:00,
2014-01-30 04:30:00,3.7,-1.9,30.02,NW,315,0.0,-999.0,77,-99.99,,,0.00,Acu-Link.com,2014-01-30 09:30:00,
2014-01-30 04:46:00,3.4,-1.9,30.03,NNE,22,1.1,-999.0,78,-99.99,,,0.00,Acu-Link.com,2014-01-30 09:46:00,
2014-01-30 05:01:00,3.4,-1.6,30.02,WSW,247,0.0,-999.0,79,-99.99,,,0.00,Acu-Link.com,2014-01-30 10:01:00,
2014-01-30 05:16:00,3.6,-1.2,30.02,NW,315,0.0,-999.0,80,-99.99,,,0.00,Acu-Link.com,2014-01-30 10:16:00,
2014-01-30 05:31:00,3.2,-1.6,30.03,NW,315,2.2,-999.0,80,-99.99,,,0.00,Acu-Link.com,2014-01-30 10:31:00,
2014-01-30 05:47:00,3.7,-0.8,30.04,NW,315,2.2,-999.0,81,-99.99,,,0.00,Acu-Link.com,2014-01-30 10:47:00,
2014-01-30 06:02:00,4.6,0.1,30.03,ESE,112,0.0,-999.0,81,-99.99,,,0.00,Acu-Link.com,2014-01-30 11:02:00,
2014-01-30 06:17:00,3.7,-1.1,30.04,West,270,0.0,-999.0,80,-99.99,,,0.00,Acu-Link.com,2014-01-30 11:17:00,
2014-01-30 06:32:00,3.2,-1.8,30.04,West,270,0.0,-999.0,79,-99.99,,,0.00,Acu-Link.com,2014-01-30 11:32:00,
2014-01-30 06:47:00,2.5,-2.2,30.04,West,270,0.0,-999.0,80,-99.99,,,0.00,Acu-Link.com,2014-01-30 11:47:00,
2014-01-30 07:03:00,1.9,-2.8,30.03,West,270,0.0,-999.0,80,-99.99,,,0.00,Acu-Link.com,2014-01-30 12:03:00,
2014-01-30 07:18:00,1.6,-2.9,30.05,West,270,0.0,-999.0,81,-99.99,,,0.00,Acu-Link.com,2014-01-30 12:18:00,
2014-01-30 07:33:00,1.4,-3.0,30.04,NNW,337,0.0,-999.0,81,-99.99,,,0.00,Acu-Link.com,2014-01-30 12:33:00,
2014-01-30 07:49:00,1.4,-3.0,30.03,NW,315,0.0,-999.0,81,-99.99,,,0.00,Acu-Link.com,2014-01-30 12:49:00,
2014-01-30 08:04:00,1.4,-3.0,30.04,NW,315,0.0,-999.0,81,-99.99,,,0.00,Acu-Link.com,2014-01-30 13:04:00,
2014-01-30 08:19:00,2.3,-1.9,30.05,NW,315,0.0,-999.0,82,-99.99,,,0.00,Acu-Link.com,2014-01-30 13:19:00,
2014-01-30 08:35:00,3.7,-0.8,30.04,NW,315,0.0,-999.0,81,-99.99,,,0.00,Acu-Link.com,2014-01-30 13:35:00,
2014-01-30 08:50:00,7.5,2.6,30.04,NW,315,0.0,-999.0,80,-99.99,,,0.00,Acu-Link.com,2014-01-30 13:50:00,
2014-01-30 09:05:00,8.1,2.1,30.04,NW,315,0.0,-999.0,76,-99.99,,,0.00,Acu-Link.com,2014-01-30 14:05:00,
2014-01-30 09:20:00,12.4,5.7,30.07,NW,315,0.0,-999.0,74,-99.99,,,0.00,Acu-Link.com,2014-01-30 14:20:00,
2014-01-30 09:36:00,16.3,7.3,30.06,South,180,0.0,-999.0,67,-99.99,,,0.00,Acu-Link.com,2014-01-30 14:36:00,
2014-01-30 09:51:00,18.7,8.9,30.05,North,0,0.0,-999.0,65,-99.99,,,0.00,Acu-Link.com,2014-01-30 14:51:00,
2014-01-30 10:06:00,19.2,7.3,30.05,ESE,112,0.0,-999.0,59,-99.99,,,0.00,Acu-Link.com,2014-01-30 15:06:00,
2014-01-30 10:21:00,21.7,10.4,30.04,South,180,2.2,-999.0,61,-99.99,,,0.00,Acu-Link.com,2014-01-30 15:21:00,
2014-01-30 10:36:00,21.9,9.8,30.06,East,90,2.2,-999.0,59,-99.99,,,0.00,Acu-Link.com,2014-01-30 15:36:00,
2014-01-30 10:52:00,22.8,11.4,30.04,SSW,202,0.0,-999.0,61,-99.99,,,0.00,Acu-Link.com,2014-01-30 15:52:00,
2014-01-30 11:07:00,24.4,11.4,30.04,ESE,112,3.2,-999.0,57,-99.99,,,0.00,Acu-Link.com,2014-01-30 16:07:00,
2014-01-30 11:22:00,25.9,12.8,30.05,East,90,2.7,-999.0,57,-99.99,,,0.00,Acu-Link.com,2014-01-30 16:22:00,
2014-01-30 11:38:00,28.0,14.8,30.04,ENE,67,0.0,-999.0,57,-99.99,,,0.00,Acu-Link.com,2014-01-30 16:38:00,
2014-01-30 11:53:00,28.2,13.7,30.03,NE,45,1.1,-999.0,54,-99.99,,,0.00,Acu-Link.com,2014-01-30 16:53:00,
2014-01-30 12:08:00,30.4,15.3,30.02,WSW,247,0.0,-999.0,53,-99.99,,,0.00,Acu-Link.com,2014-01-30 17:08:00,
2014-01-30 12:24:00,32.2,14.7,30.01,NNE,22,2.7,-999.0,48,-99.99,,,0.00,Acu-Link.com,2014-01-30 17:24:00,
2014-01-30 12:39:00,34.9,16.2,29.99,SE,135,1.7,-999.0,46,-99.99,,,0.00,Acu-Link.com,2014-01-30 17:39:00,
2014-01-30 12:54:00,32.5,10.9,29.98,West,270,2.2,-999.0,40,-99.99,,,0.00,Acu-Link.com,2014-01-30 17:54:00,
2014-01-30 13:09:00,33.3,13.2,29.98,ESE,112,0.0,-999.0,43,-99.99,,,0.00,Acu-Link.com,2014-01-30 18:09:00,
2014-01-30 13:25:00,34.3,14.7,29.96,ESE,112,1.7,-999.0,44,-99.99,,,0.00,Acu-Link.com,2014-01-30 18:25:00,
2014-01-30 13:40:00,35.1,15.9,29.95,ESE,112,2.2,-999.0,45,-99.99,,,0.00,Acu-Link.com,2014-01-30 18:40:00,
2014-01-30 13:55:00,33.8,13.7,29.96,East,90,3.2,-999.0,43,-99.99,,,0.00,Acu-Link.com,2014-01-30 18:55:00,
2014-01-30 14:11:00,35.2,16.5,29.93,ESE,112,4.2,-999.0,46,-99.99,,,0.00,Acu-Link.com,2014-01-30 19:11:00,
2014-01-30 14:26:00,34.2,14.6,29.93,ENE,67,3.2,-999.0,44,-99.99,,,0.00,Acu-Link.com,2014-01-30 19:26:00,
2014-01-30 14:41:00,35.8,15.5,29.91,SSE,157,0.0,-999.0,43,-99.99,,,0.00,Acu-Link.com,2014-01-30 19:41:00,
2014-01-30 14:57:00,34.5,15.4,29.91,ESE,112,3.2,-999.0,45,-99.99,,,0.00,Acu-Link.com,2014-01-30 19:57:00,
2014-01-30 15:12:00,34.3,15.7,29.92,East,90,2.2,-999.0,46,-99.99,,,0.00,Acu-Link.com,2014-01-30 20:12:00,
2014-01-30 15:27:00,34.5,15.4,29.91,ESE,112,2.2,-999.0,45,-99.99,,,0.00,Acu-Link.com,2014-01-30 20:27:00,
2014-01-30 15:42:00,34.2,14.6,29.91,South,180,3.2,-999.0,44,-99.99,,,0.00,Acu-Link.com,2014-01-30 20:42:00,
2014-01-30 15:58:00,32.9,14.4,29.90,South,180,0.0,-999.0,46,-99.99,,,0.00,Acu-Link.com,2014-01-30 20:58:00,
2014-01-30 16:13:00,31.8,14.4,29.91,SSW,202,1.1,-999.0,48,-99.99,,,0.00,Acu-Link.com,2014-01-30 21:13:00,
2014-01-30 16:28:00,30.7,14.3,29.90,WSW,247,0.0,-999.0,50,-99.99,,,0.00,Acu-Link.com,2014-01-30 21:28:00,
2014-01-30 16:43:00,29.7,14.3,29.90,NW,315,0.0,-999.0,52,-99.99,,,0.00,Acu-Link.com,2014-01-30 21:43:00,
2014-01-30 16:59:00,28.6,14.5,29.91,WNW,292,0.0,-999.0,55,-99.99,,,0.00,Acu-Link.com,2014-01-30 21:59:00,
2014-01-30 17:14:00,27.3,14.9,29.90,SW,225,0.0,-999.0,59,-99.99,,,0.00,Acu-Link.com,2014-01-30 22:14:00,
2014-01-30 17:29:00,26.4,15.2,29.89,West,270,0.0,-999.0,62,-99.99,,,0.00,Acu-Link.com,2014-01-30 22:29:00,
2014-01-30 17:45:00,25.5,15.4,29.91,West,270,0.0,-999.0,65,-99.99,,,0.00,Acu-Link.com,2014-01-30 22:45:00,
2014-01-30 18:00:00,24.8,15.1,29.91,SW,225,2.2,-999.0,66,-99.99,,,0.00,Acu-Link.com,2014-01-30 23:00:00,
2014-01-30 18:15:00,24.1,14.8,29.90,West,270,0.0,-999.0,67,-99.99,,,0.00,Acu-Link.com,2014-01-30 23:15:00,
2014-01-30 18:30:00,23.4,14.1,29.92,West,270,1.1,-999.0,67,-99.99,,,0.00,Acu-Link.com,2014-01-30 23:30:00,
2014-01-30 18:45:00,22.8,14.2,29.90,West,270,1.7,-999.0,69,-99.99,,,0.00,Acu-Link.com,2014-01-30 23:45:00,
2014-01-30 19:01:00,22.5,13.9,29.90,WSW,247,1.1,-999.0,69,-99.99,,,0.00,Acu-Link.com,2014-01-31 00:01:00,
2014-01-30 19:16:00,22.3,13.7,29.92,West,270,1.7,-999.0,69,-99.99,,,0.00,Acu-Link.com,2014-01-31 00:16:00,
2014-01-30 19:31:00,21.7,13.5,29.92,WNW,292,0.0,-999.0,70,-99.99,,,0.00,Acu-Link.com,2014-01-31 00:31:00,
2014-01-30 19:47:00,21.2,13.0,29.93,WNW,292,0.0,-999.0,70,-99.99,,,0.00,Acu-Link.com,2014-01-31 00:47:00,
2014-01-30 20:02:00,20.8,12.6,29.93,WSW,247,2.2,-999.0,70,-99.99,,,0.00,Acu-Link.com,2014-01-31 01:02:00,
2014-01-30 20:17:00,20.8,12.9,29.93,West,270,1.1,-999.0,71,-99.99,,,0.00,Acu-Link.com,2014-01-31 01:17:00,
2014-01-30 20:32:00,20.8,12.6,29.93,West,270,1.1,-999.0,70,-99.99,,,0.00,Acu-Link.com,2014-01-31 01:32:00,
2014-01-30 20:48:00,20.5,12.6,29.94,West,270,0.0,-999.0,71,-99.99,,,0.00,Acu-Link.com,2014-01-31 01:48:00,
2014-01-30 21:03:00,20.3,12.7,29.94,West,270,2.2,-999.0,72,-99.99,,,0.00,Acu-Link.com,2014-01-31 02:03:00,
2014-01-30 21:18:00,19.8,12.6,29.95,WNW,292,0.0,-999.0,73,-99.99,,,0.00,Acu-Link.com,2014-01-31 02:18:00,
2014-01-30 21:33:00,19.4,12.5,29.94,WNW,292,0.0,-999.0,74,-99.99,,,0.00,Acu-Link.com,2014-01-31 02:33:00,
2014-01-30 22:38:00,19.0,12.1,29.94,West,270,0.0,-999.0,74,-99.99,,,0.00,Acu-Link.com,2014-01-31 03:38:00,
2014-01-30 22:53:00,18.9,12.0,29.94,West,270,1.7,-999.0,74,-99.99,,,0.00,Acu-Link.com,2014-01-31 03:53:00,
2014-01-30 23:09:00,18.7,11.8,29.93,West,270,0.0,-999.0,74,-99.99,,,0.00,Acu-Link.com,2014-01-31 04:09:00,
2014-01-30 23:24:00,18.5,11.9,29.93,West,270,0.0,-999.0,75,-99.99,,,0.00,Acu-Link.com,2014-01-31 04:24:00,
2014-01-30 23:47:00,18.3,12.0,29.93,West,270,0.0,-999.0,76,-99.99,,,0.00,Acu-Link.com,2014-01-31 04:47:00,